Meteopurmerend
purmerend
Purmerend - Baaienwijk



My webcam  My webcam


Onweer radar Meer informatie blitzortung!


Regen radar Meer informatie rain snow radar


Bezoek onze andere website:

CandyAppleRed WebdesignWebdesign Purmerend Candy Apple Red

MeteopurmerendBlog

Template documentation
and downloads



Het weer levert geen direct gevaar op.    Er zijn geen waarschuwingen afgegeven.

15 daagse weersverwachting Hørsholm (DK)

  • Overzicht
  • Per uur
  • 15 dagen
  • Extra
  • Vergelijk
  • Kaarten
  • Dagkaart
  • Meer »
  • Info
  • Statistieken
  • Directe link
    Temp 6h Neerslag Wind  
 05:10     21:24    Daglengte: 16:14 Vandaag
08:00
19°
 
2
14:00
21°
3.9 mm
4
20:00
21°
0.5 mm
3
 05:12     21:22    Daglengte: 16:10 Morgen
02:00
17°
 
4
08:00
18°
 
6
14:00
19°
3.5 mm
7
20:00
17°
1.5 mm
7
 05:14     21:20    Daglengte: 16:06 Vrijdag 30 Jul
02:00
15°
 
6
08:00
17°
2.5 mm
8
14:00
21°
2.5 mm
8
20:00
19°
2.6 mm
6
 05:16     21:18    Daglengte: 16:02 Zaterdag 31 Jul
02:00
16°
5.0 mm
3
Locatie info
Region: Hovedstaden
Latitude: 55.8799°N
Longitude: 12.5067°E
29 masl
Postcode: 2970
Temp/Neerslag /Baro Onweer/Dauwpunt
    Temp Baro 1h Neerslag Dauwpunt Wind UV Bewolking  
 05:10     21:24    Daglengte: 16:14 Vandaag
07:00
18°
1008.6 hPa
48%
16.8°
2
Windvlaag: 3.8 m/s
76%
08:00
19°
1008.3 hPa
77%
17.5°
2
Windvlaag: 2.3 m/s
84%
09:00
20°
1008.3 hPa 0.8 mm
82%
16.5°
3
Windvlaag: 3.5 m/s
73%
10:00
21°
1008.1 hPa 1.1 mm
82%
15.2°
3
Windvlaag: 5 m/s
36%
11:00
21°
1008.2 hPa 1.1 mm
82%
14.4°
3
Windvlaag: 5.7 m/s
35% warningclass
12:00
21°
1007.8 hPa 0.3 mm
82%
16.7°
4
Windvlaag: 6.2 m/s
16%
13:00
21°
1007.7 hPa 0.4 mm
81%
16.7°
4
Windvlaag: 7 m/s
40%
14:00
21°
1007.6 hPa 0.3 mm
82%
15.9°
4
Windvlaag: 6.7 m/s
49%
15:00
21°
1007.5 hPa 0.4 mm
82%
15.6°
4
Windvlaag: 6.6 m/s
52%
16:00
21°
1007.3 hPa 0.2 mm
80%
14.9°
4
Windvlaag: 6.5 m/s
13%
17:00
22°
1007.1 hPa
75%
13.6°
4
Windvlaag: 6.9 m/s
15%
18:00
22°
1006.9 hPa
29%
13.2°
4
Windvlaag: 7 m/s
15%
19:00
21°
1007.0 hPa
80%
12.6°
4
Windvlaag: 6.2 m/s
19%
20:00
21°
1006.8 hPa
82%
12.8°
3
Windvlaag: 5.2 m/s
9%
21:00
20°
1006.8 hPa
72%
13.2°
3
Windvlaag: 5.6 m/s
12%
22:00
19°
1006.6 hPa
29%
14.1°
3
Windvlaag: 5.6 m/s
19%
23:00
19°
1006.7 hPa
26%
14.9°
4
Windvlaag: 6.7 m/s
28%
 05:12     21:22    Daglengte: 16:10 Morgen
00:00
18°
1006.3 hPa
70%
15.2°
3
Windvlaag: 7.7 m/s
15%
01:00
18°
1006.0 hPa
31%
15.5°
3
Windvlaag: 8.1 m/s
12%
02:00
17°
1005.6 hPa
16%
14.8°
4
Windvlaag: 7.7 m/s
5%
03:00
17°
1005.2 hPa
14%
14.6°
4
Windvlaag: 7.5 m/s
7%
04:00
17°
1005.0 hPa
19%
14.4°
5
Windvlaag: 7.6 m/s
5%
05:00
16°
1004.9 hPa
25%
13.8°
5
Windvlaag: 7.7 m/s
16%
06:00
16°
1004.6 hPa
25%
13.6°
5
Windvlaag: 8.3 m/s
4%
07:00
17°
1004.4 hPa
24%
13.7°
5
Windvlaag: 9 m/s
9%
08:00
18°
1004.0 hPa
22%
12.8°
6
Windvlaag: 10.1 m/s
8%
09:00
18°
1003.8 hPa
67%
11.9°
6
Windvlaag: 11.9 m/s
15%
10:00
18°
1003.7 hPa 1.0 mm
82%
10.6°
7
Windvlaag: 12 m/s
55%
11:00
18°
1003.8 hPa 1.4 mm
82%
10.0°
7
Windvlaag: 11.8 m/s
34%
12:00
18°
1003.6 hPa 1.0 mm
82%
10.0°
7
Windvlaag: 11.7 m/s
19%
13:00
19°
1003.6 hPa
76%
9.3°
7
Windvlaag: 11.2 m/s
8%
14:00
19°
1003.5 hPa
71%
11.1°
7
Windvlaag: 11.4 m/s
12%
15:00
19°
1003.6 hPa
76%
11.0°
7
Windvlaag: 11.1 m/s
18%
16:00
19°
1003.3 hPa
75%
10.1°
7
Windvlaag: 11.2 m/s
11%
17:00
19°
1003.1 hPa
80%
9.5°
8
Windvlaag: 12 m/s
14%
18:00
18°
1002.9 hPa 1.5 mm
81%
9.3°
7
Windvlaag: 11.2 m/s
14%
19:00
18°
1002.8 hPa
75%
10.4°
7
Windvlaag: 9.4 m/s
19%
20:00
17°
1002.8 hPa
75%
10.4°
7
Windvlaag: 8.1 m/s
7%
21:00
17°
1002.9 hPa
36%
11.1°
6
Windvlaag: 8.1 m/s
13%
22:00
16°
1003.0 hPa
76%
11.6°
6
Windvlaag: 8.1 m/s
7%
23:00
15°
1003.0 hPa
92%
12.3°
6
Windvlaag: 7.8 m/s
23%
 05:14     21:20    Daglengte: 16:06 Vrijdag 30 Jul
00:00
15°
1002.9 hPa
86%
12.5°
6
Windvlaag: 8.6 m/s
64%
01:00
15°
1002.7 hPa
42%
12.8°
6
Windvlaag: 9 m/s
47%
02:00
15°
1002.2 hPa
41%
12.9°
6
Windvlaag: 8.9 m/s
62%
03:00
15°
1001.7 hPa
38%
12.4°
6
Windvlaag: 9.3 m/s
22%
04:00
15°
1001.3 hPa
39%
10.8°
6
Windvlaag: 9.7 m/s
33%
05:00
15°
1000.8 hPa
38%
11.8°
7
Windvlaag: 9.2 m/s
53%
06:00
16°
1000.5 hPa
26%
12.9°
7
Windvlaag: 9.7 m/s
72%
07:00
16°
1000.6 hPa 2.5 mm
25%
13.8°
7
Windvlaag: 9.2 m/s
68%
08:00
17°
1000.6 hPa
35%
14.2°
8
Windvlaag: 9.4 m/s
77%
09:00
18°
1000.7 hPa
85%
13.6°
8
Windvlaag: 8.7 m/s
68%
10:00
19°
1000.8 hPa 2.5 mm
87%
12.5°
8
Windvlaag: 8.1 m/s
51%
11:00
19°
1001.0 hPa
85%
12.7°
8
Windvlaag: 6.5 m/s
41%
12:00
20°
1001.1 hPa
79%
14.1°
8
Windvlaag: 6.5 m/s
41%
13:00
21°
1001.0 hPa
34%
13.0°
8
Windvlaag: 6.7 m/s
42%
14:00
21°
1000.9 hPa
75%
12.9°
8
Windvlaag: 6.7 m/s
39%
15:00
22°
1000.7 hPa
78%
12.8°
7
Windvlaag: 6.5 m/s
46%
16:00
22°
1000.7 hPa
74%
12.9°
7
Windvlaag: 5.5 m/s
42%
17:00
21°
1000.8 hPa 2.6 mm
67%
13.5°
7
Windvlaag: 5.1 m/s
76%
18:00
21°
1001.1 hPa
25%
13.1°
6
Windvlaag: 5.6 m/s
67%
19:00
20°
1001.0 hPa
27%
12.8°
6
Windvlaag: 6.4 m/s
67%
20:00
19°
1001.0 hPa
24%
12.8°
6
Windvlaag: 6.5 m/s
46%
21:00
18°
1001.1 hPa
26%
13.4°
5
Windvlaag: 6.2 m/s
52%
22:00
17°
1001.2 hPa
26%
13.5°
5
Windvlaag: 5.5 m/s
46%
23:00
17°
1001.2 hPa
25%
14.1°
4
Windvlaag: 5.6 m/s
64%
 05:16     21:18    Daglengte: 16:02 Zaterdag 31 Jul
00:00
17°
1001.2 hPa
24%
14.4°
4
Windvlaag: 5.5 m/s
63%
01:00
16°
1001.1 hPa 2.5 mm
74%
14.3°
3
Windvlaag: 5.5 m/s
58%
02:00
16°
1000.6 hPa 2.5 mm
24%
14.3°
3
Windvlaag: 5.2 m/s
63%
03:00
16°
1001.8 hPa
22%
14.6°
3
Windvlaag: 11.6 m/s
16%
04:00
15°
1001.6 hPa
21%
14.6°
2
Windvlaag: 11 m/s
15%
05:00
15°
1001.2 hPa
30%
14.6°
2
Windvlaag: 10.9 m/s
17%
06:00
16°
1000.7 hPa
74%
14.8°
2
Windvlaag: 10.7 m/s
53%
Temp/Neerslag /Baro Onweer/Dauwpunt
    Temp Baro Neerslag Dauwpunt Wind Bewolking  
 05:10     21:24    Daglengte: 16:14 Vandaag
08:00
19°
1008.3 hPa   17.5°
2
84%
11:00
21°
1008.2 hPa 2.9 mm 14.4°
3
35% warningclass
14:00
21°
1007.6 hPa 1.0 mm 15.9°
4
49%
17:00
22°
1007.1 hPa 0.5 mm 13.6°
4
15%
20:00
21°
1006.8 hPa   12.8°
3
9%
23:00
19°
1006.7 hPa   14.9°
4
28%
 05:12     21:22    Daglengte: 16:10 Morgen
02:00
17°
1005.6 hPa   14.8°
4
5%
05:00
16°
1004.9 hPa   13.8°
5
16%
08:00
18°
1004.0 hPa   12.8°
6
8%
11:00
18°
1003.8 hPa 2.4 mm 10.0°
7
34%
14:00
19°
1003.5 hPa 1.0 mm 11.1°
7
12%
17:00
19°
1003.1 hPa   9.5°
8
14%
20:00
17°
1002.8 hPa 1.5 mm 10.4°
7
7%
23:00
15°
1003.0 hPa   12.3°
6
23%
 05:14     21:20    Daglengte: 16:06 Vrijdag 30 Jul
02:00
15°
1002.2 hPa   12.9°
6
62%
05:00
15°
1000.8 hPa   11.8°
7
53%
08:00
17°
1000.6 hPa 2.5 mm 14.2°
8
77%
11:00
19°
1001.0 hPa 2.5 mm 12.7°
8
41%
14:00
21°
1000.9 hPa   12.9°
8
39%
17:00
21°
1000.8 hPa 2.6 mm 13.5°
7
76%
20:00
19°
1001.0 hPa   12.8°
6
46%
23:00
17°
1001.2 hPa   14.1°
4
64%
 05:16     21:18    Daglengte: 16:02 Zaterdag 31 Jul
02:00
16°
1000.6 hPa 5.0 mm 14.3°
3
63%
05:00
15°
1001.2 hPa   14.6°
2
17%
08:00
18°
1000.1 hPa 8.2 mm 15.3°
4
73%
11:00
20°
1000.5 hPa 14.1 mm 11.9°
6
0%
14:00
20°
999.6 hPa 16.7 mm 14.4°
5
1%
17:00
18°
998.9 hPa 19.8 mm 13.3°
6
1%
20:00
17°
999.0 hPa 22.5 mm 14.0°
5
1%
23:00
15°
1001.0 hPa 22.8 mm 11.8°
6
1%
 05:18     21:16    Daglengte: 15:58 Zondag 01 Aug
02:00
14°
1002.0 hPa 22.9 mm 10.4°
6
1%
05:00
14°
1002.0 hPa 23.0 mm 9.6°
6
1%
08:00
15°
1002.5 hPa 23.0 mm 8.7°
5
1%
11:00
17°
1003.3 hPa 23.2 mm 9.2°
6
1%
14:00
19°
1003.6 hPa 23.3 mm 8.2°
6
1%
17:00
19°
1003.8 hPa 23.5 mm 8.5°
5
1%
20:00
17°
1003.8 hPa 23.6 mm 8.8°
5
1%
23:00
14°
1004.6 hPa 23.6 mm 7.7°
5
1%
 05:20     21:14    Daglengte: 15:54 Maandag 02 Aug
02:00
13°
1004.9 hPa 23.7 mm 8.9°
5
0%
05:00
14°
1005.3 hPa 23.7 mm 9.6°
6
1%
08:00
16°
1006.1 hPa 23.7 mm 10.4°
6
1%
11:00
18°
1007.5 hPa 23.7 mm 10.9°
7
1%
14:00
19°
1008.5 hPa 23.8 mm 10.5°
6
1%
17:00
19°
1009.2 hPa 23.8 mm 9.3°
6
1%
20:00
17°
1009.6 hPa 23.9 mm 10.8°
5
1%
23:00
16°
1010.5 hPa 24.0 mm 9.0°
4
1%
 05:21     21:12    Daglengte: 15:51 Dinsdag 03 Aug
02:00
14°
1011.3 hPa 24.2 mm 10.1°
4
1%
05:00
12°
1011.0 hPa 24.3 mm 9.9°
4
1%
08:00
15°
1011.6 hPa 24.6 mm 10.3°
5
1%
11:00
18°
1012.1 hPa 24.9 mm 10.1°
5
1%
14:00
18°
1012.2 hPa 25.5 mm 8.9°
5
1%
17:00
18°
1012.0 hPa 25.5 mm 8.2°
6
1%
20:00
17°
1012.4 hPa 25.5 mm 9.0°
4
1%
23:00
15°
1013.2 hPa 25.6 mm 8.5°
3
1%
 05:23     21:10    Daglengte: 15:47 Woensdag 04 Aug
02:00
14°
1013.4 hPa 25.6 mm 9.3°
3
1%
05:00
13°
1013.4 hPa   9.5°
3
1%
08:00
15°
1014.1 hPa 51.2 mm 10.2°
3
1%
14:00
21°
1012.8 hPa 51.2 mm 8.9°
3
0%
20:00
18°
1011.3 hPa 51.2 mm 10.7°
3
1%
 05:25     21:08    Daglengte: 15:43 Donderdag 05 Aug
02:00
17°
1008.6 hPa 51.3 mm 12.2°
5
1%
08:00
16°
1004.1 hPa 62.2 mm 15.1°
5
1%
14:00
20°
1001.9 hPa 73.9 mm 14.0°
5
1%
20:00
19°
1001.8 hPa 76.2 mm 15.0°
5
0%
 05:27     21:06    Daglengte: 15:39 Vrijdag 06 Aug
02:00
16°
1002.4 hPa 76.2 mm 14.3°
2
1%
08:00
17°
1001.9 hPa 76.4 mm 14.1°
2
1%
14:00
21°
1001.7 hPa 79.9 mm 13.5°
2
1%
20:00
18°
1000.8 hPa 83.5 mm 13.8°
1
1%
 05:29     21:03    Daglengte: 15:34 Zaterdag 07 Aug
02:00
16°
1005.3 hPa 0.5 mm 13.3°
2
71%
08:00
17°
1005.1 hPa 0.4 mm 13.3°
2
69%
14:00
20°
1005.6 hPa 1.2 mm 12.8°
3
69%
20:00
18°
1006.1 hPa 1.4 mm 13.3°
3
54%
 05:31     21:01    Daglengte: 15:30 Zondag 08 Aug
02:00
16°
1007.1 hPa 0.5 mm 12.8°
3
52%
08:00
16°
1007.6 hPa 0.7 mm 12.7°
3
60%
14:00
20°
1009.0 hPa 1.0 mm 12.5°
4
62%
20:00
18°
1009.6 hPa   13.4°
3
59%
 05:33     20:59    Daglengte: 15:26 Maandag 09 Aug
02:00
16°
1010.7 hPa 0.6 mm 12.8°
3
61%
08:00
17°
1011.0 hPa 0.5 mm 12.8°
3
60%
14:00
20°
1012.1 hPa 0.6 mm 12.9°
4
70%
20:00
19°
1012.4 hPa   13.5°
3
64%
 05:35     20:57    Daglengte: 15:22 Dinsdag 10 Aug
02:00
16°
1013.4 hPa 0.2 mm 12.9°
3
55%
08:00
17°
1013.4 hPa 0.1 mm 12.7°
3
63%
14:00
19°
1013.9 hPa   13.3°
3
75%
20:00
18°
1013.9 hPa 1.2 mm 13.3°
3
70%
 05:37     20:55    Daglengte: 15:18 Woensdag 11 Aug
02:00
16°
1014.4 hPa 0.4 mm 12.9°
2
59%
08:00
17°
1014.0 hPa 1.3 mm 13.3°
2
68%
14:00
20°
1014.4 hPa 0.7 mm 13.1°
3
67%
20:00
19°
1014.0 hPa 0.8 mm 13.5°
3
59%
 05:39     20:52    Daglengte: 15:13 Donderdag 12 Aug
02:00
16°
1014.2 hPa 0.6 mm 13.1°
4
65%
  CAPE Lifted Index Hail Supercell Tornado SRH 3km CL BTM PRES CL TOP PRES Swiss DWD icon SMHI TS
 05:10     21:24    Daglengte: 16:14 Vandaag
07:00 204 J/kg -0.9 K 0 % 0 % 0 % 0 m²/s² 0 0 -0.81 3
08:00 306 J/kg -0.8 K 0 % 0 % 0 % 0 m²/s² 0 0 -0.71 3
09:00 294 J/kg -0.3 K 0 % 0 % 0 % 0 m²/s² 0 0 -0.09 80
10:00 333 J/kg -0.5 K 0 % 0 % 0 % 0 m²/s² 0 0 0.1 80
11:00 347 J/kg -0.8 K 0 % 0 % 0 % 0 m²/s² 0 0 -0.29 95
12:00 252 J/kg -0.6 K 0 % 0 % 0 % 0 m²/s² 0 0 0.09 2
13:00 140 J/kg -0.1 K 0 % 0 % 0 % 0 m²/s² 0 0 0.83 3
14:00 101 J/kg 0.0 K 0 % 0 % 0 % 0 m²/s² 0 0 1.14 3
15:00 123 J/kg -0.1 K 0 % 0 % 0 % 0 m²/s² 0 0 1.37 3
16:00 161 J/kg -0.3 K 0 % 0 % 0 % 0 m²/s² 0 0 1.11 3
17:00 179 J/kg -0.5 K 0 % 0 % 0 % 0 m²/s² 0 0 1 2
18:00 165 J/kg -0.5 K 0 % 0 % 0 % 0 m²/s² 0 0 1.63 2
19:00 238 J/kg -0.9 K 0 % 0 % 0 % 0 m²/s² 0 0 0.72 2
20:00 392 J/kg -1.6 K 0 % 0 % 0 % 0 m²/s² 0 0 -0.46 2
21:00 492 J/kg -2.0 K 0 % 0 % 0 % 0 m²/s² 0 0 -1.16 1
22:00 437 J/kg -1.3 K 0 % 0 % 0 % 0 m²/s² 0 0 0.05 2
23:00 162 J/kg -0.7 K 0 % 0 % 0 % 0 m²/s² 0 0 -0.61 3
 05:12     21:22    Daglengte: 16:10 Morgen
00:00 169 J/kg -1.4 K 0 % 0 % 0 % 0 m²/s² 0 0 0.58 2
01:00 284 J/kg -1.2 K 0 % 0 % 0 % 0 m²/s² 0 0 0.6 2
02:00 187 J/kg -0.8 K 0 % 0 % 0 % 0 m²/s² 0 0 1.03 2
03:00 125 J/kg 0.0 K 0 % 0 % 0 % 0 m²/s² 0 0 2.04 2
04:00 181 J/kg -0.2 K 0 % 0 % 0 % 0 m²/s² 0 0 1.57 2
05:00 314 J/kg -0.7 K 0 % 0 % 0 % 0 m²/s² 0 0 0.26 2
06:00 245 J/kg 0.5 K 0 % 0 % 0 % 0 m²/s² 0 0 2.72 2
07:00 277 J/kg 0.5 K 0 % 0 % 0 % 0 m²/s² 0 0 4.34 2
08:00 284 J/kg 0.6 K 0 % 0 % 0 % 0 m²/s² 0 0 5.7 2
09:00 195 J/kg 1.2 K 0 % 0 % 0 % 0 m²/s² 0 0 6.03 2
10:00 198 J/kg 1.2 K 0 % 0 % 0 % 0 m²/s² 0 0 5.13 3
11:00 453 J/kg -0.5 K 0 % 0 % 0 % 0 m²/s² 0 0 1.87 3
12:00 489 J/kg -0.3 K 0 % 0 % 0 % 0 m²/s² 0 0 2.22 2
13:00 35 J/kg 2.9 K 0 % 0 % 0 % 0 m²/s² 0 0 3.2 2
14:00 25 J/kg 1.7 K 0 % 0 % 0 % 0 m²/s² 0 0 2.45 2
15:00 149 J/kg -0.6 K 0 % 0 % 0 % 0 m²/s² 0 0 0.96 2
16:00 337 J/kg -1.2 K 0 % 0 % 0 % 0 m²/s² 0 0 0.3 2
17:00 286 J/kg -1.2 K 0 % 0 % 0 % 0 m²/s² 0 0 0 2
18:00 283 J/kg -1.2 K 0 % 0 % 0 % 0 m²/s² 0 0 -0.21 2
19:00 198 J/kg -0.8 K 0 % 0 % 0 % 0 m²/s² 0 0 -0.26 2
20:00 485 J/kg -2.2 K 0 % 0 % 0 % 0 m²/s² 0 0 -1.33 2
21:00 577 J/kg -2.9 K 0 % 0 % 0 % 0 m²/s² 0 0 -1.82 2
22:00 507 J/kg -2.4 K 0 % 0 % 0 % 0 m²/s² 0 0 -0.48 2
23:00 300 J/kg -1.4 K 0 % 0 % 0 % 0 m²/s² 0 0 0.64 2
 05:14     21:20    Daglengte: 16:06 Vrijdag 30 Jul
00:00 165 J/kg -1.0 K 0 % 0 % 0 % 0 m²/s² 0 0 1.4 3
01:00 102 J/kg -1.0 K 0 % 0 % 0 % 0 m²/s² 0 0 1.76 2
02:00 36 J/kg -0.1 K 0 % 0 % 0 % 0 m²/s² 0 0 2.93 2
03:00 2 J/kg 0.8 K 0 % 0 % 0 % 0 m²/s² 0 0 3.44 2
04:00 0 J/kg 0.7 K 0 % 0 % 0 % 0 m²/s² 0 0 2.17 2
05:00 0 J/kg 0.2 K 0 % 0 % 0 % 0 m²/s² 0 0 1.79 2
06:00 0 J/kg -1.1 K 0 % 0 % 0 % 0 m²/s² 0 0 -0.14 2
07:00 289 J/kg -1.6 K 0 % 0 % 0 % 0 m²/s² 0 0 -0.16 2
08:00 604 J/kg -2.5 K 0 % 0 % 0 % 0 m²/s² 0 0 0.71 3
09:00 598 J/kg -2.2 K 0 % 0 % 0 % 0 m²/s² 0 0 0.77 2
10:00 247 J/kg -1.1 K 0 % 0 % 0 % 0 m²/s² 0 0 1.63 2
11:00 314 J/kg -1.3 K 0 % 0 % 0 % 0 m²/s² 0 0 0.68 2
12:00 441 J/kg -1.4 K 0 % 0 % 0 % 0 m²/s² 0 0 0.4 1
13:00 190 J/kg -0.3 K 0 % 0 % 0 % 0 m²/s² 0 0 1.62 2
14:00 230 J/kg -0.5 K 0 % 0 % 0 % 0 m²/s² 0 0 1.57 1
15:00 165 J/kg -0.2 K 0 % 0 % 0 % 0 m²/s² 0 0 1.48 2
16:00 107 J/kg -0.1 K 0 % 0 % 0 % 0 m²/s² 0 0 1.64 2
17:00 98 J/kg 0.1 K 0 % 0 % 0 % 0 m²/s² 0 0 2.05 1
18:00 49 J/kg 0.5 K 0 % 0 % 0 % 0 m²/s² 0 0 2.63 2
19:00 16 J/kg 1.0 K 0 % 0 % 0 % 0 m²/s² 0 0 3.73 2
20:00 11 J/kg 1.2 K 0 % 0 % 0 % 0 m²/s² 0 0 4.71 3
21:00 10 J/kg 0.9 K 0 % 0 % 0 % 0 m²/s² 0 0 4.38 3
22:00 0 J/kg 1.6 K 0 % 0 % 0 % 0 m²/s² 0 0 5.17 3
23:00 0 J/kg 1.7 K 0 % 0 % 0 % 0 m²/s² 0 0 5.09 3
 05:16     21:18    Daglengte: 16:02 Zaterdag 31 Jul
00:00 0 J/kg 2.2 K 0 % 0 % 0 % 0 m²/s² 0 0 5.68 2
01:00 0 J/kg 2.4 K 0 % 0 % 0 % 0 m²/s² 0 0 5.52 2
02:00 0 J/kg 2.7 K 0 % 0 % 0 % 0 m²/s² 0 0 6.27 2
03:00 0 J/kg 2.6 K 0 % 0 % 0 % 0 m²/s² 0 0 5.81 1
04:00 0 J/kg 2.5 K 0 % 0 % 0 % 0 m²/s² 0 0 5.14 2
05:00 0 J/kg 2.3 K 0 % 0 % 0 % 0 m²/s² 0 0 4.16 2
06:00 0 J/kg 2.0 K 0 % 0 % 0 % 0 m²/s² 0 0 3.29 2
Temp Baro Wind Neerslag
  EWN Forecast EWN WRFDA DWD ICON FMI HIRLAM MET Norway GFS
 05:10     21:24    Daglengte: 16:14 Vandaag
08:00 19.0° 1008.3 hPa 2.4 m/s 0.0 mm 17.8° 1008.1 hPa 3.1 m/s 0.1 mm 19.9° 1008.0 hPa 2.3 m/s -2.0 mm 19.2° 1008.6 hPa 3.7 m/s 0.0 mm 16.4° 1008.6 hPa 2.6 m/s
11:00 20.7° 1008.2 hPa 3.3 m/s 2.9 mm 20.0° 1008.4 hPa 4.4 m/s 0.2 mm 20.8° 1008.2 hPa 3.3 m/s 3.3 mm 22.2° 1008.4 hPa 3.8 m/s 0.0 mm 19.0° 1008.5 hPa 3.9 m/s
14:00 21.2° 1007.6 hPa 4.3 m/s 1.0 mm 22.7° 1007.3 hPa 5.1 m/s 0.3 mm 22.0° 1007.6 hPa 4.0 m/s 0.9 mm 20.9° 1008.1 hPa 5.7 m/s 0.0 mm 21.5° 1007.7 hPa 5.4 m/s
17:00 21.8° 1007.1 hPa 4.1 m/s 0.5 mm 23.9° 1006.6 hPa 5.5 m/s 0.3 mm 22.2° 1007.2 hPa 3.6 m/s 0.7 mm 21.5° 1007.2 hPa 5.1 m/s 0.0 mm 22.0° 1007.2 hPa 5.5 m/s
20:00 20.8° 1006.8 hPa 3.1 m/s 0.0 mm 22.4° 1006.0 hPa 5.1 m/s 0.3 mm 20.6° 1006.9 hPa 2.6 m/s 0.1 mm 21.2° 1007.1 hPa 4.6 m/s 0.0 mm 20.2° 1006.8 hPa 4.6 m/s
23:00 18.5° 1006.7 hPa 3.9 m/s 0.0 mm 16.9° 1006.3 hPa 4.9 m/s 3.9 mm 18.8° 1006.8 hPa 2.4 m/s 0.0 mm 19.0° 1007.2 hPa 4.5 m/s 0.0 mm 16.9° 1006.8 hPa 3.7 m/s
 05:12     21:22    Daglengte: 16:10 Morgen
02:00 17.2° 1005.6 hPa 4.4 m/s 0.0 mm 16.0° 1005.1 hPa 3.5 m/s 11.7 mm 17.3° 1005.7 hPa 3.7 m/s 0.1 mm 17.7° 1006.4 hPa 4.6 m/s 0.0 mm 15.9° 1005.9 hPa 4.3 m/s
05:00 16.4° 1004.9 hPa 4.7 m/s 0.0 mm 15.0° 1003.8 hPa 3.2 m/s 11.7 mm 16.5° 1005.1 hPa 3.7 m/s 0.0 mm 17.1° 1005.3 hPa 6.7 m/s 0.0 mm 14.9° 1005.2 hPa 5.4 m/s
08:00 17.5° 1004.0 hPa 5.8 m/s 0.0 mm 17.6° 1002.7 hPa 6.1 m/s 11.7 mm 17.6° 1004.0 hPa 4.9 m/s 0.0 mm 17.7° 1005.8 hPa 7.2 m/s 0.0 mm 16.9° 1004.4 hPa 7.0 m/s
11:00 17.6° 1003.8 hPa 6.7 m/s 2.4 mm 18.8° 1002.1 hPa 8.4 m/s 11.9 mm 17.3° 1003.9 hPa 5.9 m/s 0.7 mm 19.5° 1005.8 hPa 6.5 m/s 0.0 mm 18.3° 1004.0 hPa 9.0 m/s
14:00 19.0° 1003.5 hPa 6.9 m/s 1.0 mm 15.6° 1002.6 hPa 3.9 m/s 14.0 mm 19.4° 1003.4 hPa 6.8 m/s 0.2 mm 20.1° 1005.2 hPa 7.1 m/s 0.0 mm 18.4° 1003.9 hPa 9.5 m/s
17:00 18.7° 1003.1 hPa 7.5 m/s 0.0 mm 18.4° 1001.2 hPa 10.2 m/s 17.8 mm 18.6° 1003.3 hPa 6.5 m/s 0.1 mm 20.3° 1004.5 hPa 7.2 m/s 0.0 mm 20.0° 1002.8 hPa 9.9 m/s
20:00 17.3° 1002.8 hPa 6.7 m/s 1.5 mm 15.8° 1001.6 hPa 7.7 m/s 19.2 mm 17.4° 1002.8 hPa 6.0 m/s 0.2 mm 18.9° 1003.5 hPa 7.4 m/s 0.0 mm 15.9° 1002.9 hPa 9.7 m/s
23:00 15.0° 1003.0 hPa 5.7 m/s 0.0 mm 14.5° 1002.3 hPa 6.5 m/s 20.1 mm 15.9° 1003.1 hPa 5.1 m/s 0.1 mm 14.7° 1003.7 hPa 8.2 m/s
 05:14     21:20    Daglengte: 16:06 Vrijdag 30 Jul
02:00 15.2° 1002.2 hPa 6.0 m/s 0.0 mm 13.8° 1001.4 hPa 6.2 m/s 20.2 mm 15.7° 1003.0 hPa 5.3 m/s 0.0 mm 14.1° 1003.2 hPa 7.5 m/s
05:00 15.4° 1000.8 hPa 6.5 m/s 0.0 mm 14.3° 999.8 hPa 6.9 m/s 20.2 mm 15.5° 1002.4 hPa 4.9 m/s 0.0 mm 14.4° 1002.2 hPa 8.0 m/s
08:00 16.9° 1000.6 hPa 7.7 m/s 2.5 mm 16.9° 999.1 hPa 9.4 m/s 21.0 mm 17.0° 1002.1 hPa 7.1 m/s 0.0 mm 16.5° 1001.0 hPa 8.9 m/s
11:00 19.3° 1001.0 hPa 7.5 m/s 2.5 mm 19.4° 999.6 hPa 8.9 m/s 21.5 mm 19.8° 1001.7 hPa 6.6 m/s 0.2 mm 17.8° 1000.3 hPa 9.8 m/s
14:00 21.5° 1000.9 hPa 7.5 m/s 0.0 mm 21.8° 1000.0 hPa 10.3 m/s 21.7 mm 21.5° 1001.6 hPa 6.5 m/s 0.0 mm 20.1° 1000.9 hPa 10.1 m/s
17:00 21.2° 1000.8 hPa 6.7 m/s 2.6 mm 21.3° 1000.6 hPa 9.9 m/s 21.7 mm 21.6° 1001.9 hPa 5.9 m/s 0.1 mm 21.3° 1001.5 hPa 9.5 m/s
20:00 19.4° 1001.0 hPa 6.1 m/s 0.0 mm 19.5° 1000.5 hPa 8.6 m/s 21.7 mm 20.1° 1002.3 hPa 4.7 m/s 0.0 mm 19.4° 1002.4 hPa 7.8 m/s
23:00 17.0° 1001.2 hPa 3.9 m/s 0.0 mm 16.4° 1001.0 hPa 6.0 m/s 21.7 mm 17.6° 1002.9 hPa 2.9 m/s 0.0 mm 16.8° 1002.8 hPa 6.4 m/s
 05:16     21:18    Daglengte: 16:02 Zaterdag 31 Jul
02:00 15.8° 1000.6 hPa 3.3 m/s 5.0 mm 14.9° 1000.5 hPa 5.6 m/s 21.7 mm 16.3° 1002.5 hPa 2.4 m/s 0.0 mm 15.5° 1002.9 hPa 6.5 m/s
05:00 15.3° 1001.2 hPa 2.1 m/s 0.0 mm 14.5° 999.4 hPa 4.7 m/s 21.7 mm 15.5° 1001.6 hPa 1.4 m/s 0.0 mm 16.2° 1001.7 hPa 6.0 m/s
08:00 17.6° 1000.1 hPa 4.0 m/s 8.2 mm 16.3° 999.0 hPa 4.8 m/s 21.7 mm 18.0° 1000.4 hPa 3.7 m/s 1.5 mm 16.8° 1001.3 hPa 5.5 m/s
11:00 20.1° 1000.5 hPa 5.6 m/s 14.1 mm 20.1° 1000.5 hPa 5.6 m/s 14.1 mm
14:00 19.5° 999.6 hPa 5.0 m/s 16.7 mm 19.5° 999.6 hPa 5.0 m/s 16.7 mm
17:00 17.8° 998.9 hPa 5.9 m/s 19.8 mm 17.8° 998.9 hPa 5.9 m/s 19.8 mm
20:00 16.5° 999.0 hPa 4.6 m/s 22.5 mm 16.5° 999.0 hPa 4.6 m/s 22.5 mm
23:00 14.8° 1001.0 hPa 5.9 m/s 22.8 mm 14.8° 1001.0 hPa 5.9 m/s 22.8 mm
 05:18     21:16    Daglengte: 15:58 Zondag 01 Aug
02:00 14.3° 1002.0 hPa 5.9 m/s 22.9 mm 14.3° 1002.0 hPa 5.9 m/s 22.9 mm
05:00 14.5° 1002.0 hPa 5.7 m/s 23.0 mm 14.5° 1002.0 hPa 5.7 m/s 23.0 mm
08:00 15.4° 1002.5 hPa 5.4 m/s 23.0 mm 15.4° 1002.5 hPa 5.4 m/s 23.0 mm
11:00 17.2° 1003.3 hPa 6.3 m/s 23.2 mm 17.2° 1003.3 hPa 6.3 m/s 23.2 mm
14:00 18.8° 1003.6 hPa 6.0 m/s 23.3 mm 18.8° 1003.6 hPa 6.0 m/s 23.3 mm
17:00 18.6° 1003.8 hPa 5.4 m/s 23.5 mm 18.6° 1003.8 hPa 5.4 m/s 23.5 mm
20:00 17.4° 1003.8 hPa 4.9 m/s 23.6 mm 17.4° 1003.8 hPa 4.9 m/s 23.6 mm
23:00 14.3° 1004.6 hPa 4.6 m/s 23.6 mm 14.3° 1004.6 hPa 4.6 m/s 23.6 mm
 05:20     21:14    Daglengte: 15:54 Maandag 02 Aug
02:00 13.3° 1004.9 hPa 5.5 m/s 23.7 mm 13.3° 1004.9 hPa 5.5 m/s 23.7 mm
05:00 14.1° 1005.3 hPa 6.5 m/s 23.7 mm 14.1° 1005.3 hPa 6.5 m/s 23.7 mm
08:00 16.2° 1006.1 hPa 6.5 m/s 23.7 mm 16.2° 1006.1 hPa 6.5 m/s 23.7 mm
11:00 18.2° 1007.5 hPa 6.6 m/s 23.7 mm 18.2° 1007.5 hPa 6.6 m/s 23.7 mm
14:00 18.6° 1008.5 hPa 6.2 m/s 23.8 mm 18.6° 1008.5 hPa 6.2 m/s 23.8 mm
17:00 19.0° 1009.2 hPa 5.7 m/s 23.8 mm 19.0° 1009.2 hPa 5.7 m/s 23.8 mm
20:00 17.4° 1009.6 hPa 4.8 m/s 23.9 mm 17.4° 1009.6 hPa 4.8 m/s 23.9 mm
23:00 15.5° 1010.5 hPa 3.6 m/s 24.0 mm 15.5° 1010.5 hPa 3.6 m/s 24.0 mm
 05:21     21:12    Daglengte: 15:51 Dinsdag 03 Aug
02:00 14.4° 1011.3 hPa 4.3 m/s 24.2 mm 14.4° 1011.3 hPa 4.3 m/s 24.2 mm
05:00 12.0° 1011.0 hPa 4.1 m/s 24.3 mm 12.0° 1011.0 hPa 4.1 m/s 24.3 mm
08:00 15.0° 1011.6 hPa 4.6 m/s 24.6 mm 15.0° 1011.6 hPa 4.6 m/s 24.6 mm
11:00 18.1° 1012.1 hPa 5.0 m/s 24.9 mm 18.1° 1012.1 hPa 5.0 m/s 24.9 mm
14:00 18.3° 1012.2 hPa 5.4 m/s 25.5 mm 18.3° 1012.2 hPa 5.4 m/s 25.5 mm
17:00 18.5° 1012.0 hPa 5.7 m/s 25.5 mm 18.5° 1012.0 hPa 5.7 m/s 25.5 mm
20:00 17.0° 1012.4 hPa 4.2 m/s 25.5 mm 17.0° 1012.4 hPa 4.2 m/s 25.5 mm
23:00 15.0° 1013.2 hPa 3.2 m/s 25.6 mm 15.0° 1013.2 hPa 3.2 m/s 25.6 mm
 05:23     21:10    Daglengte: 15:47 Woensdag 04 Aug
02:00 14.3° 1013.4 hPa 3.2 m/s 25.6 mm 14.3° 1013.4 hPa 3.2 m/s 25.6 mm
05:00 13.1° 1013.4 hPa 2.9 m/s 25.6 mm 13.1° 1013.4 hPa 2.9 m/s 25.6 mm
08:00 15.4° 1014.1 hPa 3.3 m/s 25.6 mm 15.4° 1014.1 hPa 3.3 m/s 25.6 mm
14:00 20.6° 1012.8 hPa 2.6 m/s 25.6 mm 20.6° 1012.8 hPa 2.6 m/s 25.6 mm
20:00 18.3° 1011.3 hPa 3.3 m/s 25.6 mm 18.3° 1011.3 hPa 3.3 m/s 25.6 mm
 05:25     21:08    Daglengte: 15:43 Donderdag 05 Aug
02:00 17.0° 1008.6 hPa 4.5 m/s 25.7 mm 17.0° 1008.6 hPa 4.5 m/s 25.7 mm
08:00 15.9° 1004.1 hPa 5.1 m/s 34.4 mm 15.9° 1004.1 hPa 5.1 m/s 34.4 mm
14:00 20.4° 1001.9 hPa 5.0 m/s 37.9 mm 20.4° 1001.9 hPa 5.0 m/s 37.9 mm
20:00 18.8° 1001.8 hPa 4.5 m/s 38.1 mm 18.8° 1001.8 hPa 4.5 m/s 38.1 mm
 05:27     21:06    Daglengte: 15:39 Vrijdag 06 Aug
02:00 15.9° 1002.4 hPa 1.8 m/s 38.1 mm 15.9° 1002.4 hPa 1.8 m/s 38.1 mm
08:00 17.0° 1001.9 hPa 2.2 m/s 38.2 mm 17.0° 1001.9 hPa 2.2 m/s 38.2 mm
14:00 20.7° 1001.7 hPa 2.2 m/s 41.3 mm 20.7° 1001.7 hPa 2.2 m/s 41.3 mm
20:00 18.3° 1000.8 hPa 1.4 m/s 41.8 mm 18.3° 1000.8 hPa 1.4 m/s 41.8 mm
 05:29     21:03    Daglengte: 15:34 Zaterdag 07 Aug
02:00 16.2° 1005.3 hPa 1.7 m/s 0.5 mm
08:00 16.7° 1005.1 hPa 2.4 m/s 0.4 mm
14:00 19.7° 1005.6 hPa 3.5 m/s 1.2 mm
20:00 18.3° 1006.1 hPa 2.7 m/s 1.4 mm
 05:31     21:01    Daglengte: 15:30 Zondag 08 Aug
02:00 15.7° 1007.1 hPa 3.1 m/s 0.5 mm
08:00 16.3° 1007.6 hPa 3.4 m/s 0.7 mm
14:00 19.7° 1009.0 hPa 4.4 m/s 1.0 mm
20:00 18.4° 1009.6 hPa 3.3 m/s 0.0 mm
 05:33     20:59    Daglengte: 15:26 Maandag 09 Aug
02:00 16.1° 1010.7 hPa 3.0 m/s 0.6 mm
08:00 16.6° 1011.0 hPa 3.0 m/s 0.5 mm
14:00 19.5° 1012.1 hPa 3.9 m/s 0.6 mm
20:00 18.5° 1012.4 hPa 2.8 m/s 0.0 mm
 05:35     20:57    Daglengte: 15:22 Dinsdag 10 Aug
02:00 16.1° 1013.4 hPa 2.8 m/s 0.2 mm
08:00 16.7° 1013.4 hPa 2.7 m/s 0.1 mm
14:00 19.5° 1013.9 hPa 3.0 m/s 0.0 mm
20:00 18.4° 1013.9 hPa 2.8 m/s 1.2 mm
 05:37     20:55    Daglengte: 15:18 Woensdag 11 Aug
02:00 16.1° 1014.4 hPa 2.5 m/s 0.4 mm
08:00 16.5° 1014.0 hPa 2.4 m/s 1.3 mm
14:00 19.8° 1014.4 hPa 3.2 m/s 0.7 mm
20:00 18.6° 1014.0 hPa 3.1 m/s 0.8 mm
 05:39     20:52    Daglengte: 15:13 Donderdag 12 Aug
02:00 16.1° 1014.2 hPa 3.7 m/s 0.6 mm
FMI Hirlam - 7.5 km EWN WRFDA - 12 km DWD ICON - 7 km GFS - 25 km Basiskaart






























































Updatetijd (Europe/Amsterdam) Resolutie Lengte Stap
FMI Hirlam 01:45, 07:45, 13:45, 19:45 7.5 km 49h 1h
EWN WRFDA 05:30, 11:30, 17:30, 23:30 12 km 73h 1h
DWD ICON 00:00, 06:00, 12:00, 18:00 7 km 75h 1h
GFS 02:15, 08:15, 14:15, 20:15 25 km 237h 3h
30+ mm
25-30 mm
20-25 mm
15-20 mm
10-15 mm
6-10 mm
4-6 mm
2-4 mm
1-2 mm
0.5-1 mm
0.2-0.5 mm
0.1-0.2 mm
30+ mm
25-30 mm
20-25 mm
15-20 mm
10-15 mm
6-10 mm
4-6 mm
2-4 mm
1-2 mm
0.5-1 mm
0.2-0.5 mm
0.1-0.2 mm
Sneeuwval
Natte sneeuw
Hagel
Vorst
30+ mm
25-30 mm
20-25 mm
15-20 mm
10-15 mm
6-10 mm
4-6 mm
2-4 mm
1-2 mm
0.5-1 mm
0.2-0.5 mm
0.1-0.2 mm
Sneeuwval
Natte sneeuw
Hagel
Vorst
Onweer
50 mm
40 mm
30 mm
26 mm
22 mm
18 mm
14 mm
10 mm
9 mm
8 mm
7 mm
6 mm
5 mm
4.5 mm
4 mm
3.5 mm
3 mm
2.5 mm
2 mm
1.5 mm
1 mm
0.8 mm
0.6 mm
0.4 mm
0.2 mm
0.05 mm
35°
30°
25°
20°
15°
10°
-5°
-10°
-15°
-20°
-25°
-30°
-35°
33> m/s
29 m/s
25 m/s
21 m/s
17 m/s
14 m/s
11 m/s
8 m/s
5 m/s
3 m/s
0 m/s
2600 J/kg
2400 J/kg
2200 J/kg
2000 J/kg
1800 J/kg
1600 J/kg
1400 J/kg
1200 J/kg
1000 J/kg
800 J/kg
600 J/kg
400 J/kg
200 J/kg
70 dBZ
65 dBZ
60 dBZ
55 dBZ
50 dBZ
45 dBZ
40 dBZ
35 dBZ
30 dBZ
25 dBZ